map of OZZ home
OZZ - Airport
Location
City:  Ouarzazate, Morocco
Near (Alt.):Wazan, Wazzan, Uessen
Name:Ouarzazate Airport
ICAO:GMMZ
IATA:OZZ

Details
Type:Airport (Aerodrome, Airfield)
Use:Public/Civil, International (customs port of entry)
Latitude:3056'21"N (30.939053)
Longitude:654'34"W (-6.909430)
Datum:WGS 1984
Elevation:3782 ft (1153 m)
Variation:1.71W (WMM2015 magnetic declination)
0.11 annual change
Runways:1
Longest:9842 × 148 ft (3000 × 45 m), paved

Time
Time Zone:UTC+0 (DST+1)
Local Time:

Weather
METAR:GMMZ 220800Z 00000KT 8000 NSC 28/09 Q1022 NOSIG
TAF:GMMZ 220500Z 2206/2312 VRB03KT 6000 SCT040
TEMPO 2217/2301 01016KT TSRA BKN040 FEW050CB

Related Locations
Nearby:
Farthest:KAT: 12145 mi / 19545 km
Kaitaia, NTL, NZ

Find:

   beyond  
but within

Other Information
Maps:
NOTAMs:
Links:
Sources:

  
flag of Morocco   

Sectional Chart

Flight Planning
at skyvector.com

Satellite Image

Google Maps Satellite view

 

Copyright © 2004-2017 Karl L. Swartz. All rights reserved.
The Great Circle Mapper name and logo are trademarks of the Great Circle Mapper.
All other trademarks mentioned herein belong to their respective owners.
Please see credits for attibutions and further copyright information.

  Follow gcmap on Facebook Follow gcmap on Twitter Follow gcmap on Google+ GCmap on LinkedIn

hCard Microformat

Geo Microformat